#timestamp,LO_Frequency,Hit,StdDev 
1664416815.1,286047002.0,N
1664416816.0,286047002.0,N
1664416835.8,286047000.1,N
1664416855.7,286047002.5,N
1664416875.5,286047002.2,N
1664416895.4,286047002.7,N
1664416915.2,286047000.0,N
1664416935.0,286047001.9,N
1664416935.9,286047001.9,N
1664416955.8,286047002.0,N
1664416975.6,286047001.9,N
1664416995.4,286047004.0,N
1664417015.3,286047003.1,N
1664417035.1,286047003.3,N
1664417055.9,286047004.0,N
1664417075.7,286047001.6,N
1664417095.5,286047000.9,N
1664417115.4,286047001.0,N
1664417135.2,286046999.4,N
1664417155.1,286046996.9,N
1664417156.0,286046996.9,N
1664417175.8,286046998.5,N
1664417195.7,286047000.6,N
1664417215.5,286047000.7,N
1664417235.3,286047000.7,N
1664417255.2,286046998.7,N
1664417275.0,286046999.1,N
1664417275.9,286046999.1,N
1664417295.8,286046999.6,N
1664417315.6,286046999.4,N
1664417335.4,286046998.6,N
1664417355.3,286046995.3,N
1664417375.1,286046999.2,N
1664417395.8,286047000.9,N
1664417415.7,286047000.2,N
1664417435.5,286046999.9,N
1664417455.4,286047002.4,N
1664417475.2,286047002.2,N
1664417495.0,286047002.4,N
1664417495.9,286047002.4,N
1664417515.8,286047002.8,N
1664417535.6,286047001.8,N
1664417555.4,286047003.3,N
1664417575.3,286047004.4,N
1664417595.1,286047003.5,N
1664417615.9,286047003.9,N
1664417635.7,286047002.9,N
1664417655.5,286047003.4,N
1664417675.4,286047001.4,N
1664417695.2,286047005.9,N
1664417715.0,286047005.1,N
1664417716.0,286047005.1,N
1664417735.8,286047003.6,N
1664417755.6,286047004.1,N
1664417775.5,286047002.5,N
1664417795.3,286047001.9,N
1664417815.1,286047000.5,N
1664417835.9,286047000.8,N
1664417855.7,286047000.2,N
1664417875.6,286047003.1,N
1664417895.4,286047004.0,N
1664417915.2,286047003.6,N
1664417935.1,286047002.3,N
1664417936.0,286047002.3,N
1664417955.8,286047002.4,N
1664417975.7,286047002.2,N
1664417995.5,286047000.2,N
1664418015.3,286046999.8,N
1664418035.2,286047001.6,N
1664418055.0,286047002.8,N
1664418055.9,286047002.8,N
1664418075.7,286047002.7,N
1664418095.6,286047002.5,N
1664418115.4,286047002.0,N
1664418135.3,286047003.6,N
1664418155.1,286047004.2,N
1664418175.8,286047005.9,Y
1664418195.7,286046999.7,P
1664418215.5,286047002.4,N
1664418235.4,286046999.2,N
1664418255.2,286046999.5,N
1664418275.0,286046998.9,N
1664418275.9,286046998.9,N
1664418295.8,286047002.3,N
1664418315.6,286046999.8,N
1664418335.5,286046999.8,N
1664418355.3,286047002.5,N
1664418375.1,286047000.1,N
1664418395.9,286046999.7,N
1664418415.7,286047004.3,Y
1664418435.6,286047001.9,P
1664418455.4,286047001.2,N
1664418475.2,286046999.8,N
1664418495.1,286046998.4,N
1664418496.0,286046998.4,N
1664418515.8,286046998.7,N
1664418535.7,286046998.4,N
1664418555.5,286046999.7,N
1664418575.3,286047002.7,N
1664418595.2,286047004.3,N
1664418615.9,286047004.0,N
1664418635.7,286047001.5,N
1664418655.6,286047002.4,N
1664418675.4,286047000.8,N
1664418695.2,286047000.9,N
1664418715.1,286046999.8,N
1664418716.0,286046999.8,N
1664418735.8,286047002.2,N
1664418755.7,286047004.4,N
1664418775.5,286047002.5,N
1664418795.3,286047003.9,N
1664418815.2,286047002.3,N
1664418835.0,286046999.8,N
1664418835.9,286046999.8,N
1664418855.8,286047000.1,N
1664418875.6,286046998.4,N
1664418895.4,286046997.0,N
1664418915.3,286046999.6,N
1664418935.1,286047000.1,N
1664418955.9,286047000.5,N
1664418975.7,286046999.2,N
1664418995.5,286046999.5,N
1664419015.4,286047000.8,N
1664419035.2,286047000.5,N
1664419055.0,286047000.9,N
1664419056.0,286047000.9,N
1664419075.8,286047000.4,N
1664419095.6,286047001.0,N
1664419115.5,286046999.9,N
1664419135.3,286047000.5,N
1664419155.1,286046998.3,N
1664419175.9,286046998.4,N
1664419195.7,286047002.3,N
1664419215.6,286047001.6,N
1664419235.4,286047002.1,N
1664419255.2,286047003.7,N
1664419275.1,286047003.4,N
1664419276.0,286047003.4,N
1664419295.8,286047003.6,N
1664419315.6,286047002.1,N
1664419335.5,286047002.7,N
1664419355.3,286047001.6,N
1664419375.2,286047000.5,N
1664419395.9,286047000.4,N
1664419415.8,286047002.8,N
1664419435.6,286046998.4,N
1664419455.5,286047000.0,N
1664419475.3,286046999.7,N
1664419495.1,286047000.0,N
1664419515.9,286047002.4,N
1664419535.7,286046999.7,N
1664419555.5,286046999.7,N
1664419575.4,286047003.6,N
1664419595.2,286047002.9,N
1664419615.1,286047005.8,Y
1664419616.0,286047005.8,P
1664419635.8,286047002.1,N
1664419655.6,286047003.9,N
1664419675.5,286047002.7,N
1664419695.3,286047002.6,N
1664419715.1,286047002.6,N
1664419735.9,286047002.8,N
1664419755.7,286047002.2,N
1664419775.6,286047001.9,N
1664419795.4,286047003.3,N
1664419815.2,286047005.1,Y
1664419835.1,286047001.5,P
1664419836.0,286047001.5,N
1664419855.8,286046999.9,N
1664419875.7,286047000.3,N
1664419895.5,286047000.2,N
1664419915.3,286047002.3,N
1664419935.2,286047000.5,N
1664419955.9,286046999.1,N
1664419975.7,286046998.1,N
1664419995.6,286046998.8,N
1664420015.4,286046999.3,N
1664420035.3,286046999.5,N
1664420055.1,286046998.5,N
1664420056.0,286046998.5,N
1664420075.8,286046996.1,N
1664420095.7,286046996.2,N
1664420115.5,286046999.4,N
1664420135.4,286046998.4,N
1664420155.2,286047000.9,N
1664420175.0,286047011.9,Y
1664420175.9,286047000.2,P
1664420195.8,286047002.5,P
1664420215.6,286046998.3,N
1664420235.4,286047000.9,N
1664420255.3,286046998.5,N
1664420275.1,286047000.7,N
1664420295.9,286046998.3,N
1664420315.7,286046998.4,N
1664420335.5,286046997.8,N
1664420355.4,286046995.7,N
1664420375.2,286046995.5,N
1664420395.0,286046996.5,N
1664420395.9,286046996.5,N
